Dewpoint
65 66 66 68 68 68 69 68 68 68 67 67 67 66 66 66 66 67 67 67 67 67 68 67 66 67 66 65 66 65 65 64 64 63 62 63 61 62 64 64 64 65 64 63 63 61 60 57 59 62 64 63 62 62 62 61 61 61 63 62 61 64 64
65 66 66 66 67 67 67 69 69 68 68 67 67 67 67 66 66 67 67 66 67 66 67 67 67 67 66 65 65 65 65 64 64 63 63 61 62 62 63 64 64 63 63 64 63 62 59 58 57 59 60 62 63 62 62 62 61 62 63 63 61 62 63
65 66 67 66 66 67 66 67 67 67 67 67 67 67 66 66 65 65 66 66 66 66 67 66 66 66 67 66 65 65 66 65 66 66 64 64 64 64 64 64 62 63 63 62 62 62 61 60 57 57 59 59 59 60 62 62 61 61 62 63 62 61 63
64 64 65 66 66 66 65 65 66 66 67 66 66 65 66 65 65 65 66 65 65 66 66 66 66 66 66 66 66 66 66 66 66 66 65 65 64 64 65 65 63 63 61 60 60 60 60 59 59 59 58 58 59 59 61 62 60 59 60 61 62 59 62
63 63 64 64 64 64 64 65 66 66 65 65 66 66 64 65 66 66 66 65 65 65 66 66 66 66 66 66 66 66 66 66 66 66 65 65 65 64 64 64 64 64 63 62 62 62 61 60 59 58 59 59 60 60 61 61 61 59 58 60 60 59 61
62 62 63 63 64 64 64 64 64 64 65 64 64 64 65 65 65 66 66 65 65 64 66 66 66 66 66 67 66 66 65 65 65 66 65 65 65 64 64 65 64 64 63 64 63 62 62 62 60 59 59 61 58 57 59 61 60 59 58 60 58 57 60
61 61 61 61 63 64 65 64 64 64 64 64 63 63 65 64 65 66 65 65 64 65 66 66 65 65 66 65 66 65 65 65 65 65 65 65 65 65 65 64 64 64 63 63 63 63 62 62 61 60 59 60 60 58 59 60 59 58 58 62 60 56 58
60 60 60 61 62 64 64 65 64 64 64 64 65 65 65 65 64 65 65 64 65 65 65 65 66 65 64 65 64 64 65 64 65 65 65 65 65 64 65 64 65 64 64 64 63 63 63 62 61 60 59 57 57 58 57 59 57 57 57 59 59 56 58
58 59 60 60 61 62 63 64 64 66 64 64 64 65 65 65 65 64 63 63 63 65 64 64 64 64 65 65 64 64 65 65 64 64 64 65 64 64 65 65 65 64 64 64 64 64 63 63 62 62 61 60 57 55 57 58 57 57 57 57 57 57 57
58 58 59 60 60 61 62 63 65 65 65 65 65 65 65 65 65 65 64 64 64 65 64 64 64 64 65 64 64 65 64 65 65 64 65 64 64 65 65 64 64 64 64 65 64 64 64 64 63 63 63 61 59 56 54 54 55 56 56 57 56 57 57
57 57 58 58 59 60 61 61 63 63 64 64 65 65 64 64 64 64 64 64 64 64 64 64 64 64 64 64 64 65 65 65 65 64 64 64 64 64 64 64 64 64 64 65 64 63 63 63 63 63 62 61 62 58 56 54 54 55 55 56 56 57 58
56 56 56 57 57 57 58 59 60 62 63 64 63 64 65 63 63 64 64 63 64 64 64 63 63 63 64 64 63 64 65 64 64 63 64 65 64 63 63 64 64 64 64 63 63 64 64 63 63 62 62 61 61 59 57 58 57 59 57 56 58 58 57
54 54 55 56 56 56 56 57 57 59 61 64 64 63 64 64 63 63 63 64 63 63 63 63 63 63 63 63 64 63 63 63 63 63 64 64 63 64 64 62 63 63 64 64 63 63 64 63 63 62 61 62 62 61 60 58 54 55 59 59 58 57 58
54 54 54 55 56 56 56 56 57 58 58 60 63 63 63 62 63 63 62 63 63 63 63 62 62 62 62 63 63 63 63 63 63 62 63 63 63 63 63 62 62 63 63 63 63 63 63 63 63 63 62 62 61 61 60 58 56 56 59 61 60 58 58
53 53 54 54 54 54 54 56 57 57 58 58 59 62 63 63 63 63 61 62 62 62 63 63 63 64 63 63 62 62 62 62 63 62 63 62 63 63 62 63 63 62 63 62 63 63 62 63 62 62 62 61 60 60 60 60 58 57 58 59 59 61 63
52 53 53 53 53 54 55 55 56 57 57 58 58 59 62 63 63 62 62 62 61 62 62 62 63 62 62 62 62 62 62 62 62 62 62 62 62 63 63 62 62 62 63 63 63 63 63 63 62 61 61 61 59 60 60 60 60 59 58 58 58 58 58
52 52 52 52 53 53 54 54 55 56 56 57 56 57 58 60 61 61 62 63 61 61 62 62 63 62 62 62 62 62 62 61 62 61 62 61 62 61 62 62 62 61 62 63 62 63 63 63 63 61 61 61 60 63 62 62 60 58 59 58 57 57 57
51 52 52 52 52 52 53 53 54 53 54 55 55 56 57 57 59 60 61 62 63 61 61 62 62 63 63 63 62 62 62 62 62 62 62 63 62 62 61 61 62 62 62 62 62 62 62 62 62 62 62 61 61 62 61 61 62 61 59 58 58 61 58
51 51 51 51 52 51 52 52 52 52 52 52 53 54 54 54 55 55 56 59 61 61 62 62 61 61 62 62 62 62 62 62 62 62 62 63 62 61 62 62 62 63 61 61 61 61 61 61 63 63 61 61 61 61 61 61 61 62 61 60 59 57 58
50 51 51 51 51 50 50 51 50 50 51 51 51 51 51 52 53 54 54 56 58 60 62 62 62 62 62 62 62 62 62 62 62 62 62 62 62 62 62 63 63 62 61 62 62 62 62 61 62 62 62 62 62 62 61 61 60 61 60 60 58 56 57
49 50 50 50 49 50 50 50 50 50 50 49 49 49 50 50 51 51 52 53 54 58 59 61 61 57 56 58 61 62 62 61 61 62 62 62 62 62 62 61 61 62 62 61 62 62 62 61 63 62 62 62 61 61 60 60 60 60 60 59 59 57 55
49 48 48 49 49 49 49 49 49 49 48 48 49 48 49 49 49 49 50 51 52 54 58 58 48 46 46 47 51 56 61 62 62 62 60 60 61 61 62 62 63 62 63 62 59 59 59 60 62 61 62 62 61 61 60 60 60 59 59 59 58 58 58
47 47 47 47 47 48 48 48 49 48 48 48 47 48 48 48 48 48 48 48 49 51 54 51 46 43 43 44 46 51 56 60 61 61 62 62 61 61 62 62 62 62 59 58 57 54 53 54 57 61 63 62 61 60 59 59 59 59 58 58 58 58 57
45 45 46 46 47 47 47 48 47 47 47 47 47 47 47 46 46 46 47 46 47 48 50 45 42 40 40 41 44 47 50 55 60 61 61 61 61 61 62 62 62 61 59 58 58 53 52 52 53 55 56 57 59 60 59 59 59 59 58 58 58 57 56
44 44 45 44 45 45 46 46 46 47 47 47 47 47 46 46 45 45 45 45 45 46 47 43 40 40 40 39 40 43 46 51 56 60 61 61 61 61 62 61 62 61 61 60 61 58 53 49 48 47 48 50 52 54 54 58 59 59 58 57 57 57 56
43 43 43 43 44 44 44 45 45 46 46 47 47 46 45 45 45 45 44 44 44 44 45 43 40 40 39 39 38 40 44 49 54 58 60 61 61 62 62 61 61 61 61 59 61 60 57 52 45 45 45 45 45 48 49 51 54 60 60 58 57 57 57
43 43 43 43 43 43 43 43 45 46 46 46 46 46 46 45 45 44 44 43 43 43 44 42 40 39 39 38 38 38 42 47 52 56 59 60 61 61 62 61 60 60 61 61 61 60 58 56 54 53 55 56 54 49 46 45 48 52 56 59 59 58 59
42 42 43 43 43 43 43 43 44 44 45 45 44 45 45 45 44 44 43 43 43 42 43 41 39 38 38 38 38 39 43 49 52 55 58 60 61 61 61 61 60 60 61 61 61 60 59 57 57 58 58 58 57 55 55 56 58 59 60 60 60 60 59
43 42 42 42 43 43 43 43 43 44 44 44 44 44 44 44 44 43 43 43 42 42 42 40 39 38 38 38 38 43 48 51 54 56 58 60 61 61 61 61 60 60 61 61 56 51 54 59 59 59 57 54 52 49 47 43 40 40 49 60 59 57 55
42 42 42 42 42 43 43 43 43 43 42 43 43 43 43 43 43 43 42 42 42 41 41 40 38 38 37 38 40 46 50 53 55 57 59 60 60 59 59 60 61 61 61 61 53 47 50 54 60 58 55 53 52 51 49 47 42 40 41 41 40 40 40
41 42 41 41 42 42 42 42 42 43 42 41 42 42 42 42 43 42 42 42 43 41 41 41 39 38 38 38 40 48 52 55 53 52 51 51 51 51 49 48 57 61 60 59 46 47 47 55 59 57 54 52 52 51 50 50 49 45 41 41 41 41 42
41 41 40 41 41 41 40 41 42 42 42 41 41 41 42 42 42 42 42 42 43 42 41 41 40 38 38 38 40 47 50 49 48 47 48 48 49 48 48 46 45 51 56 49 44 46 46 53 58 56 54 53 52 51 50 50 50 50 51 51 51 51 49
40 40 39 40 40 40 40 40 40 41 41 40 40 40 41 41 41 41 41 41 41 42 42 41 41 38 38 38 38 43 46 47 46 45 45 45 45 45 46 45 43 38 38 39 40 41 46 51 57 56 55 54 52 51 51 51 51 52 52 51 50 50 49
39 39 39 39 39 39 39 39 40 40 40 40 40 40 40 41 41 41 40 40 40 40 41 41 41 39 38 38 38 39 43 43 45 45 44 43 43 42 42 43 43 40 39 39 40 40 43 47 50 56 55 53 51 50 49 49 48 46 47 47 47 47 45
39 40 39 39 39 38 38 38 39 39 39 39 39 39 39 39 40 40 40 40 39 39 41 42 40 40 38 38 38 38 40 41 42 43 42 42 42 41 41 41 41 39 38 39 39 40 40 41 43 49 46 42 42 43 49 47 47 46 46 46 46 46 45
39 39 39 38 38 38 37 37 38 38 38 38 38 38 38 38 39 39 38 38 38 39 39 40 40 40 39 38 38 38 38 39 39 43 42 40 41 41 42 42 42 40 38 38 38 39 40 40 42 42 39 40 40 41 44 46 45 45 45 45 45 46 46
39 38 37 37 37 37 37 37 37 37 38 37 37 37 37 38 38 38 38 37 38 38 39 40 40 38 39 38 38 37 37 37 38 41 42 41 41 41 41 41 41 39 39 39 39 38 38 39 41 39 40 40 41 42 45 44 44 44 43 44 45 45 45